www.pogodaiklimat.ru

Погода и климат >> Архив погоды >> Казахстан >> Жангизтобе


ПОГОДА в Жангизтобе

  • Прогноз погоды в Жангизтобе
  • Монитор погоды в Жангизтобе
  • Климат города

АРХИВ ПОГОДЫ в Жангизтобе

Время (UTC), дата Ветер
(напр.,м/с)
 
Видим.   Явления Облачность Т
(С)
Тd
(С)
f
(%)
Тe
(С)
Тes
(С)
Комфортность P
(гПа)
Po
(гПа)
Тmin
(С)
Tmax
(С)
R
(мм)
R24
(мм)
S
(см)
00 18.05 Ю 2 50 км ясно -2.2 -3.7 89 -6 -6 1020.9 964.6
03 18.05 СЗ 3 50 км 3/3 1000 м
[Cu hum Ci sp]
+5.3 -5.7 45 +3 +8 1019.2 964.4
06 18.05 З 1 50 км 3/0
[Ci fib]
+8.1 -3.2 45 +8 +27 опасность
простуды
1018.2 964.0 -2.6
09 18.05 СВ 1 50 км ясно +11.2 -2.6 38 +12 +27 опасность
простуды
1015.9 962.4
12 18.05 штиль 0 50 км 1/0
[Ci fib]
+13.0 -3.7 31 +13 +17 1015.1 962.0
15 18.05 С 1 н/о 3/0
[Ci fib]
+10.6 -1.1 44 +11 +11 1015.7 962.1 +14.0
18 18.05 Ю 2 н/о 3/0
[Ci fib]
+5.7 -2.4 56 +4 +4 1016.8 962.2 +14.0
21 18.05 Ю 3 н/о 6/0
[Ac As]
+6.3 -3.3 50 +4 +4 1015.3 960.9
00 19.05 З 2 50 км 10/0
[Ac As]
+8.5 -3.3 43 +7 +7 1015.7 961.7
03 19.05 СЗ 2 50 км 10/10 1000 м
[Cb calv]
+1.2 +0.7 96 -2 -2 1021.9 966.2
06 19.05 СЗ 2 50 км {ливн. осадки} 10/10 1000 м
[Cb calv]
+1.5 -1.6 80 -2 -2 1024.5 968.7 +1.0
09 19.05 СЗ 4 50 км 6/6 1000 м
[Sc]
+7.5 +0.3 60 +4 +8 1023.6 969.0
12 19.05 СЗ 3 50 км 8/4 1000 м
[Sc Ci sp]
+8.4 -3.5 43 +6 +8 1025.0 970.5
15 19.05 З 1 н/о 3/0
[Ac lent]
+5.3 -3.8 52 +5 +5 1027.6 972.4 +9.3
18 19.05 З 1 н/о ясно +3.1 -2.2 68 +2 +2 1029.0 973.3 +9.3 4
21 19.05 З 2 н/о 3/0
[Ac lent]
+0.8 -2.7 77 -3 -3 1030.6 974.3
00 20.05 Ю 2 50 км ясно 0.0 -4.2 73 -3 -3 1033.1 976.5
03 20.05 Ю 2 50 км ясно +7.1 -5.3 41 +6 +14 1032.8 977.6
06 20.05 Ю 3 50 км ясно +10.4 -5.0 33 +9 +23 опасность
простуды
1031.7 977.2 -2.3
09 20.05 Ю 2 50 км ясно +13.2 -3.1 32 +13 +26 опасность
простуды
1029.8 975.9
12 20.05 Ю 2 50 км ясно +14.0 -3.2 30 +14 +17 1028.5 974.8
15 20.05 Ю 2 н/о 4/0
[Ac lent Ci fib]
+10.6 -1.2 44 +10 +10 1028.6 974.3 +15.0
18 20.05 ЮВ 4 н/о 3/0
[Ac lent]
+7.1 -3.7 46 +4 +4 1029.0 974.0 +15.0
21 20.05 ЮВ 3 н/о ясно +5.7 -4.7 47 +3 +3 1029.2 973.9
00 21.05 ЮВ 2 50 км 6/0
[Ac lent]
+3.3 -6.0 50 +1 +1 1029.5 973.8
03 21.05 Ю 6 50 км 9/6 1000 м
[Sc Ac lent]
+11.4 -1.6 40 +9 +10 1027.6 973.5
06 21.05 Ю 2 50 км ясно +20.0 -0.5 25 +21 +38 комфорт 1025.0 972.6 +3.0
09 21.05 ЮВ 4 50 км ясно +22.0 +0.9 25 +22 +30 комфорт 1023.3 971.3
12 21.05 ЮВ 3 50 км 4/0
[Ci fib]
+21.8 +1.6 26 +21 +24 комфорт 1021.4 969.5
15 21.05 ЮВ 4 н/о 3/0
[Ci fib]
+16.6 +1.2 35 +16 +16 1021.6 968.8 +23.2
18 21.05 Ю 6 н/о ясно +13.4 -0.4 39 +12 +12 1021.1 967.7 +23.2
21 21.05 Ю 4 н/о ясно +12.0 -2.0 38 +10 +10 1019.9 966.3
00 22.05 Ю 6 50 км ясно +11.6 -2.7 37 +9 +10 1018.8 965.2
03 22.05 ЮВ 5 50 км 1/0
[Ci fib]
+18.9 -2.2 24 +19 +23 1015.9 963.8
06 22.05 ЮВ 4 50 км ясно +24.4 0.0 20 +23 +35 комфорт 1012.6 961.6 +11.0
09 22.05 ЮВ 4 50 км ясно +26.0 +0.8 19 +24 +33 комфорт 1009.3 958.7
12 22.05 Ю 3 50 км ясно +27.0 +3.4 22 +26 +28 жарко 1005.9 955.7
15 22.05 Ю 2 н/о 3/3 1000 м
[Sc]
+20.8 +5.9 38 +22 +22 комфорт 1005.1 953.9 +27.5
18 22.05 Ю 5 н/о 10/10 1000 м
[Sc]
+20.2 +5.3 38 +21 +21 комфорт 1002.6 951.4 +27.5
21 22.05 З 3 н/о 10/10 1000 м
[Sc]
+17.4 +8.7 57 +17 +17 1002.0 950.4
00 23.05 СВ 1 50 км 10/10 1000 м
[Sc]
+11.0 +9.0 87 +11 +11 1001.8 949.1
03 23.05 СЗ 3 50 км 10/10 1000 м
[Sc]
+11.5 +10.2 92 +10 +10 999.9 947.4
06 23.05 З 3 50 км {гроза, ливн. осадки} 9/6 1000 м
[Cb calv Ci sp]
+10.2 +6.0 75 +8 +13 1001.5 948.7 +10.8
09 23.05 З 4
{17}
50 км {ливн. осадки} 10/10 1000 м
[Cb calv]
+9.8 +5.8 76 +7 +7 1004.5 951.4
12 23.05 З 5 50 км {ливн. осадки} 6/6 1000 м
[Sc]
+9.3 +3.2 66 +6 +7 1006.1 952.8
15 23.05 ЮЗ 6 н/о 10/10 1000 м
[Cb calv]
+8.1 +2.2 66 +4 +4 1008.7 955.1 +11.5
18 23.05 ЮЗ 2 н/о {ливн. осадки} 10/10 1000 м
[Cb calv]
+4.9 +2.8 86 +2 +2 1010.5 956.2 +11.5 7
21 23.05 ЮЗ 7 н/о {ливн. осадки} 10/10 1000 м
[Cb calv]
+4.1 +2.7 91 -2 -2 1011.3 956.8
00 24.05 СЗ 5 50 км {ливн. осадки} 10/10 1000 м
[Sc]
+3.1 +0.8 85 -2 -2 1019.3 964.1
03 24.05 З 4
{17}
50 км в посл. час ливневой дождь 10/10 600 м
[Cb calv]
+4.6 +1.1 78 +1 +1 1025.9 970.7
06 24.05 З 5 50 км {ливн. осадки} 10/10 1000 м
[Cb calv]
+5.3 -2.4 58 +1 +1 1027.6 972.4 +3.0 3
09 24.05 З 6 50 км {ливн. осадки} 9/9 600 м
[Cb calv]
+9.4 -1.3 47 +6 +7 1026.2 971.8
12 24.05 З 3 50 км {ливн. осадки} 10/10 1000 м
[Cb calv]
+11.0 -1.2 43 +10 +10 1024.8 970.8
15 24.05 Ю 5 н/о 10/10 1000 м
[Sc]
+9.4 +1.0 56 +6 +6 1024.6 970.3 +12.0
18 24.05 Ю 8
{16}
н/о {ливн. осадки} 10/10 1000 м
[Cb calv]
+8.4 +0.3 57 +4 +4 1023.0 968.6 +12.0 0.0
21 24.05 ЮВ 4 н/о 10/10 1000 м
[Sc]
+8.1 +0.5 59 +5 +5 1021.8 967.4

 

Местоположение метеостанции Жангизтобе (Восточно-Казахстанская область, Казахстан): широта 49.22 долгота 81.22 высота над уровнем моря 455 м.

В архиве по умолчанию представлена погода в Жангизтобе за последнюю неделю. Архивные данные за месяц целиком и за предыдущие месяцы, начиная с января 2011 года, Вы можете получить, выбрав интересующий диапазон дат из раскрывающегося списка и нажав кнопку "Ввод!".


*Определитесь, кто Вы:
робот инопланетянин человек

Внимание! Время в таблицах - всемирное. Для получения местного времени необходимо прибавить поправку, которая в Жангизтобе равна 6 ч.

Смотрите также архив погоды в соседних городах и на ближайших метеорологических станциях:

Погода в Кентерлау (Восточно-Казахстанская область, Казахстан) (29 км)
Погода в Шаре (Восточно-Казахстанская область, Казахстан) (42 км)
Погода в Шалабае (Восточно-Казахстанская область, Казахстан) (57 км)
Погода в Кокпектах (Восточно-Казахстанская область, Казахстан) (99 км)
Погода в Кайсенова (Восточно-Казахстанская область, Казахстан) (117 км)
Погода в Таврии (Восточно-Казахстанская область, Казахстан) (121 км)
Погода в Первомайском (Восточно-Казахстанская область, Казахстан) (130 км)
Погода в Шульбинске (Восточно-Казахстанская область, Казахстан) (130 км)
Погода в Глубоком (Восточно-Казахстанская область, Казахстан) (130 км)
Погода в Усть-Каменогорске (Восточно-Казахстанская область, Казахстан) (131 км)

Пояснения к столбцам:

Ветер - указаны скорость ветра в м/с - средняя за 10 мин, порывы в срок и между сроками (в фигурных скобках) и направление, откуда дует ветер: С - северный, СВ - северо-восточный, В - восточный, ЮВ - юго-восточный, Ю - южный, ЮЗ - юго-западный, З - западный, СЗ - северо-западный.
Видимость - горизонтальная дальность видимости в метрах или километрах. При видимости от 1 до 10 км при отсутствии осадков обычно наблюдается дымка, при ухудшении видимости до 1 км и менее - туман. В сухую погоду видимость может ухудшаться дымом, пылью или мглою.
Явления - указаны атмосферные явления, наблюдавшиеся в срок или в последний час перед сроком; фигурными скобками обозначены явления, наблюдавшиеся между сроками (за 1-3 часа до срока); квадратными скобками обозначены град или гололедные отложения с указанием их диаметра в мм.
Облачность - указаны через наклонную черту общая и нижняя облачность в баллах и высота нижней границы облаков в метрах; квадратными скобками обозначены формы облаков: Ci - перистые, Cs - перисто-слоистые, Cc - перисто-кучевые, Ac - высококучевые, As - высокослоистые, Sc - слоисто-кучевые, Ns - слоисто-дождевые, Cu - кучевые, Cb - кучево-дождевые. Подробнее классификацию облаков см. в Атласе облаков (PDF).
T - Температура воздуха - температура, измеренная на высоте 2 м над землей.
Td - Температура точки росы - температура, при понижении до которой содержащийся в воздухе водяной пар достигнет насыщения.
f - Относительная влажность воздуха - влажноcть воздуха, измеренная на высоте 2 м над землей.
Te - Эффективная температура - температура, которую ощущает одетый по сезону человек в тени. Характеристика душности погоды. При расчете учитывается влияние влажности воздуха и скорости ветра на теплоощущения человека.
Tes - Эффективная температура на солнце - температура, которую ощущает человек, с поправкой на солнечный нагрев. Характеристика знойности погоды. Зависит от высоты солнца над горизонтом, облачности и скорости ветра. Ночью, в пасмурную погоду, а также при ветре 12 м/с и более поправка равна нулю.
P - Атмосферное давление - приведенное к уровню моря атмосферное давление.
Po - Атмосферное давление - измеренное на уровне метеостанции атмосферное давление.
Tmin - Минимальная температура - минимум температуры воздуха на высоте 2 м над землей.
Tmax - Максимальная температура - максимум температуры воздуха на высоте 2 м над землей.
R - Количество осадков - Количество выпавших осадков за период времени, мм. При наведении курсора мыши на число - период времени, за который выпало указанное количество осадков.
R24 - Количество осадков - Количество выпавших осадков за 24 часа, мм.
S - Снежный покров - Высота снежного покрова, см. При наведении курсора мыши на число - состояние снежного покрова и степень покрытия местности в баллах.